This demonstration page uses our WeatherBlox Daily Observations layout. Learn more.

Left ArrowRight Arrow

44.8408, -93.29828

Hourly Observations for August 11, 2019

Temp ( °F °C ) Dew Point ( °F °C ) Humidity (%) Winds ( mph kmh ) Pressure ( in mb ) Visibility ( mi km ) Precip ( " mm )
12:53 am 00:53 Cloudy 66 18.9 62 16.7 87 87 ENE 6 9 29.93 1014 10 16 0.00 0.00
1:01 am 01:01 Cloudy 66 18.9 62 16.7 87 87 E 7 11 29.91 1013 10 16 0.00 0.00
1:13 am 01:13 Cloudy 66 18.9 62 16.7 87 87 E 7 11 29.92 1013 10 16 0.00 0.00
1:23 am 01:23 Cloudy 66 18.9 62 16.7 87 87 E 6 9 29.92 1013 10 16 0.00 0.00
1:53 am 01:53 Cloudy 66 18.9 63 17.2 90 90 ENE 5 7 29.93 1014 10 16 0.00 0.00
2:53 am 02:53 Cloudy 66 18.9 63 17.2 90 90 NNE 6 9 29.93 1014 10 16 0.00 0.00
3:01 am 03:01 Cloudy 66 18.9 63 17.2 90 90 NNE 3 6 29.92 1013 10 16 0.00 0.00
3:10 am 03:10 Cloudy 67 19.4 63 17.2 87 87 NNE 5 7 29.93 1014 10 16 0.00 0.00
3:34 am 03:34 Cloudy 66 18.9 63 17.2 90 90 NNE 5 7 29.93 1014 10 16 0.00 0.00
3:53 am 03:53 Cloudy 66 18.9 63 17.2 90 90 NE 5 7 29.94 1014 10 16 0.00 0.00
4:20 am 04:20 Cloudy 66 18.9 63 17.2 90 90 NE 5 7 29.93 1014 10 16 0.00 0.00
4:44 am 04:44 Cloudy 66 18.9 63 17.2 90 90 NNE 3 6 29.93 1014 10 16 0.00 0.00
4:53 am 04:53 Cloudy 66 18.9 63 17.2 90 90 NE 3 6 29.94 1014 10 16 0.00 0.00
5:35 am 05:35 Cloudy 66 18.9 63 17.2 90 90 ENE 5 7 29.92 1013 10 16 0.00 0.00
5:53 am 05:53 Cloudy 66 18.9 63 17.2 90 90 NE 5 7 29.93 1014 10 16 0.00 0.00
6:53 am 06:53 Cloudy 67 19.4 63 17.2 87 87 N 5 7 29.96 1014 10 16 0.00 0.00
7:36 am 07:36 Cloudy 67 19.4 64 17.8 91 91 N 6 9 29.94 1014 10 16 0.00 0.00
7:53 am 07:53 Cloudy 67 19.4 63 17.2 87 87 VRB 6 9 29.95 1014 10 16 0.00 0.00
8:12 am 08:12 Cloudy 67 19.4 63 17.2 87 87 NNE 6 9 29.95 1014 10 16 0.00 0.00
8:21 am 08:21 Cloudy 68 20 63 17.2 84 84 NE 6 9 29.95 1014 10 16 0.00 0.00
8:53 am 08:53 Cloudy 68 20 64 17.8 87 87 VRB 7 11 29.97 1015 10 16 0.00 0.00
9:53 am 09:53 Cloudy 68 20 64 17.8 87 87 NNE 7 11 29.98 1015 10 16 0.00 0.00
10:53 am 10:53 Cloudy 70 21.1 64 17.8 82 82 N 8 13 30.00 1016 10 16 0.00 0.00
11:42 am 11:42 Cloudy 72 22.2 64 17.8 76 76 N 8 13 29.98 1015 10 16 0.00 0.00
11:53 am 11:53 Cloudy 72 22.2 64 17.8 76 76 NNE 7 11 30.01 1016 10 16 0.00 0.00
12:53 pm 12:53 Cloudy 73 22.8 65 18.3 76 76 NE 6 9 30.00 1016 10 16 0.00 0.00
1:35 pm 13:35 Cloudy 74 23.3 65 18.3 74 74 VRB 3 6 29.97 1015 10 16 0.00 0.00
1:53 pm 13:53 Cloudy 75 23.9 65 18.3 71 71 NNE 6 9 29.99 1016 10 16 0.00 0.00
2:53 pm 14:53 Cloudy 76 24.4 66 18.9 72 72 WNW 3 6 29.98 1015 10 16 0.00 0.00
3:53 pm 15:53 Mostly Cloudy 77 25 65 18.3 66 66 NNW 3 6 29.97 1015 10 16 0.00 0.00
4:53 pm 16:53 Mostly Cloudy 78 25.6 66 18.9 67 67 VRB 5 7 29.96 1014 10 16 0.00 0.00
5:53 pm 17:53 Partly Cloudy 81 27.2 67 19.4 62 62 Calm 29.94 1014 10 16 0.00 0.00
6:53 pm 18:53 Mostly Sunny 78 25.6 66 18.9 67 67 VRB 6 9 29.94 1014 10 16 0.00 0.00
7:53 pm 19:53 Mostly Sunny 77 25 65 18.3 66 66 SSE 5 7 29.93 1014 10 16 0.00 0.00
8:53 pm 20:53 Clear 76 24.4 66 18.9 72 72 S 5 7 29.93 1014 10 16 0.00 0.00
9:53 pm 21:53 Clear 74 23.3 66 18.9 76 76 SW 3 6 29.95 1014 10 16 0.00 0.00
10:53 pm 22:53 Clear 72 22.2 66 18.9 82 82 SW 3 6 29.95 1014 10 16 0.00 0.00
11:53 pm 23:53 Clear 71 21.7 66 18.9 84 84 SSW 5 7 29.95 1014 8 13 0.00 0.00

Powered by AerisWeather